TimeWET,TemperatureF,Dew PointF,Humidity,Sea Level PressureIn,VisibilityMPH,Wind Direction,Wind SpeedMPH,Gust SpeedMPH,PrecipitationIn,Events,Conditions,WindDirDegrees,DateUTC
12:00 AM,48,36,51,30.49,6,ESE,3.5,,,,,120,2013-01-06 00:00:00
12:00 AM,48.2,35.6,62,30.45,-9999.0,ESE,3.5,-,N/A,,Clear,120,2013-01-06 00:00:00
12:30 AM,48.2,35.6,62,30.45,-9999.0,NE,3.5,-,N/A,,Clear,40,2013-01-06 00:30:00
1:00 AM,46.4,35.6,66,30.45,-9999.0,NNE,1.2,-,N/A,,Clear,30,2013-01-06 01:00:00
1:30 AM,46.4,35.6,66,30.45,-9999.0,ENE,1.2,-,N/A,,Clear,70,2013-01-06 01:30:00
2:00 AM,46.4,35.6,66,30.45,-9999.0,Calm,Calm,-,N/A,,Clear,0,2013-01-06 02:00:00
2:30 AM,46.4,35.6,66,30.45,-9999.0,ESE,3.5,-,N/A,,Clear,120,2013-01-06 02:30:00
3:00 AM,45,36,61,30.48,6,SE,4.6,,,,,140,2013-01-06 03:00:00
3:00 AM,44.6,35.6,71,30.45,-9999.0,SE,4.6,-,N/A,,Clear,130,2013-01-06 03:00:00
3:30 AM,44.6,35.6,71,30.45,-9999.0,SSE,3.5,-,N/A,,Clear,160,2013-01-06 03:30:00
4:00 AM,41.0,35.6,81,30.45,-9999.0,Variable,2.3,-,N/A,,Clear,0,2013-01-06 04:00:00
4:30 AM,42.8,35.6,76,30.42,6.2,Variable,2.3,-,N/A,,Unknown,0,2013-01-06 04:30:00
5:00 AM,42.8,35.6,76,30.42,-9999.0,East,3.5,-,N/A,,Clear,80,2013-01-06 05:00:00
5:30 AM,41.0,33.8,76,30.42,-9999.0,SE,2.3,-,N/A,,Clear,140,2013-01-06 05:30:00
6:00 AM,40,34,72,30.49,6,ESE,1.2,,,,,110,2013-01-06 06:00:00
6:00 AM,41.0,33.8,76,30.42,-9999.0,ESE,2.3,-,N/A,,Clear,120,2013-01-06 06:00:00
6:30 AM,41.0,35.6,81,30.45,-9999.0,ENE,2.3,-,N/A,,Clear,60,2013-01-06 06:30:00
7:00 AM,41.0,35.6,81,30.45,-9999.0,East,2.3,-,N/A,,Clear,90,2013-01-06 07:00:00
7:30 AM,39.2,33.8,81,30.45,-9999.0,ESE,3.5,-,N/A,,Clear,110,2013-01-06 07:30:00
8:00 AM,39.2,33.8,81,30.45,-9999.0,East,3.5,-,N/A,,Clear,90,2013-01-06 08:00:00
8:30 AM,41.0,37.4,87,30.45,-9999.0,East,4.6,-,N/A,,Clear,80,2013-01-06 08:30:00
9:00 AM,44.6,37.4,76,30.45,5.0,East,4.6,-,N/A,,Unknown,80,2013-01-06 09:00:00
9:30 AM,48.2,37.4,66,30.48,5.0,East,3.5,-,N/A,,Unknown,80,2013-01-06 09:30:00
10:00 AM,53.6,37.4,54,30.48,-9999.0,East,4.6,-,N/A,,Clear,100,2013-01-06 10:00:00
10:30 AM,57.2,37.4,48,30.45,-9999.0,ENE,5.8,-,N/A,,Clear,60,2013-01-06 10:30:00
11:00 AM,59.0,37.4,45,30.45,-9999.0,East,4.6,-,N/A,,Clear,90,2013-01-06 11:00:00
11:30 AM,60.8,37.4,42,30.45,-9999.0,NNE,3.5,-,N/A,,Clear,30,2013-01-06 11:30:00
12:00 PM,62,38,29,30.41,6,NE,3.5,,,,,40,2013-01-06 12:00:00
12:00 PM,62.6,39.2,42,30.42,-9999.0,NE,3.5,-,N/A,,Clear,50,2013-01-06 12:00:00
12:30 PM,64.4,37.4,37,30.42,-9999.0,NNE,4.6,-,N/A,,Clear,30,2013-01-06 12:30:00
1:00 PM,64.4,37.4,37,30.39,-9999.0,NE,5.8,-,N/A,,Clear,40,2013-01-06 13:00:00
1:30 PM,66.2,35.6,32,30.39,-9999.0,NE,5.8,-,N/A,,Clear,40,2013-01-06 13:30:00
2:00 PM,66.2,35.6,32,30.36,-9999.0,Variable,4.6,-,N/A,,Clear,0,2013-01-06 14:00:00
2:30 PM,68.0,35.6,30,30.36,-9999.0,ENE,5.8,-,N/A,,Clear,60,2013-01-06 14:30:00
3:00 PM,68,34,17,30.32,6,North,4.6,,,,,10,2013-01-06 15:00:00
3:00 PM,68.0,32.0,26,30.36,-9999.0,NNE,3.5,-,N/A,,Clear,30,2013-01-06 15:00:00
3:30 PM,69.8,32.0,25,30.36,-9999.0,NNW,3.5,-,N/A,,Clear,340,2013-01-06 15:30:00
4:00 PM,69.8,33.8,27,30.36,-9999.0,NW,3.5,-,N/A,,Clear,320,2013-01-06 16:00:00
4:30 PM,69.8,33.8,27,30.36,-9999.0,Variable,2.3,-,N/A,,Clear,0,2013-01-06 16:30:00
5:00 PM,68.0,33.8,28,30.36,-9999.0,NNE,5.8,-,N/A,,Clear,20,2013-01-06 17:00:00
5:30 PM,66.2,33.8,30,30.36,-9999.0,NE,6.9,-,N/A,,Clear,50,2013-01-06 17:30:00
6:00 PM,62,33,21,30.35,6,NNE,5.8,,,,,30,2013-01-06 18:00:00
6:00 PM,62.6,32.0,32,30.36,-9999.0,NNE,5.8,-,N/A,,Clear,30,2013-01-06 18:00:00
6:30 PM,60.8,32.0,34,30.36,-9999.0,NNE,4.6,-,N/A,,Clear,30,2013-01-06 18:30:00
7:00 PM,59.0,32.0,36,30.36,-9999.0,NE,4.6,-,N/A,,Clear,40,2013-01-06 19:00:00
7:30 PM,57.2,32.0,38,30.39,-9999.0,ENE,4.6,-,N/A,,Clear,60,2013-01-06 19:30:00
8:00 PM,55.4,32.0,41,30.36,-9999.0,East,6.9,-,N/A,,Clear,90,2013-01-06 20:00:00
8:30 PM,51.8,32.0,47,30.36,-9999.0,ESE,5.8,-,N/A,,Clear,110,2013-01-06 20:30:00
9:00 PM,50,33,40,30.40,6,East,5.8,,,,,90,2013-01-06 21:00:00
9:00 PM,50.0,33.8,54,30.36,-9999.0,East,5.8,-,N/A,,Clear,100,2013-01-06 21:00:00
9:30 PM,51.8,33.8,50,30.36,-9999.0,ENE,4.6,-,N/A,,Clear,70,2013-01-06 21:30:00
10:00 PM,48.2,33.8,58,30.36,-9999.0,East,4.6,-,N/A,,Clear,90,2013-01-06 22:00:00
10:30 PM,50.0,33.8,54,30.36,-9999.0,ENE,3.5,-,N/A,,Clear,60,2013-01-06 22:30:00
11:00 PM,48.2,33.8,58,30.36,-9999.0,East,1.2,-,N/A,,Clear,90,2013-01-06 23:00:00
11:30 PM,46.4,33.8,62,30.36,5.6,Variable,1.2,-,N/A,,Unknown,0,2013-01-06 23:30:00